KD2PWM Weather Reports


Display with metric or nautical units.
time (UTC)temp
F
wind
direction
speed
MPH
gust
MPH
rain 1hr
in
rain 24hr
in
rain mn
in
humidity
%
barometer
mb
20260506171544 60 155 2.0 6.0 0.06 0.32 0.26 95 1005.7
20260506170041 60 49 2.0 11.0 0.08 0.31 0.25 95 1006.0
20260506164545 60 163 2.0 9.0 0.10 0.30 0.24 96 1006.2
20260506163103 60 154 3.0 7.0 0.11 0.28 0.22 96 1006.3
20260506161538 60 144 1.0 7.0 0.12 0.26 0.20 96 1006.5
20260506160038 58 225 0.0 3.0 0.11 0.23 0.17 96 1006.9
20260506154548 58 0 0.0 0.0 0.09 0.20 0.14 96 1007.2
20260506153040 57 0 0.0 0.0 0.09 0.17 0.11 95 1007.1
20260506151547 57 0 0.0 0.0 0.08 0.14 0.08 96 1007.2
20260506150048 57 0 0.0 0.0 0.06 0.12 0.06 95 1007.5
20260506144546 56 0 0.0 0.0 0.05 0.11 0.05 95 1007.8
20260506143045 56 0 0.0 0.0 0.02 0.08 0.02 95 1008.0
20260506141540 56 0 0.0 0.0 0.00 0.06 0.00 95 1008.0
20260506140040 56 0 0.0 0.0 0.00 0.06 0.00 95 1008.1
20260506134538 56 0 0.0 0.0 0.00 0.06 0.00 96 1007.8
20260506133038 55 0 0.0 3.0 0.00 0.06 0.00 95 1007.7
20260506131539 55 0 0.0 2.0 0.00 0.06 0.00 95 1007.5
20260506130040 55 0 0.0 2.0 0.00 0.06 0.00 96 1008.0
20260506124545 55 0 0.0 2.0 0.00 0.06 0.00 96 1008.0
20260506123041 55 292 0.0 1.0 0.00 0.06 0.00 96 1008.4
20260506121546 55 0 0.0 0.0 0.00 0.06 0.00 96 1008.8
20260506120040 54 0 0.0 0.0 0.00 0.06 0.00 96 1008.6
20260506114541 54 0 0.0 0.0 0.00 0.06 0.00 96 1008.6
20260506113039 54 0 0.0 0.0 0.00 0.06 0.00 96 1008.0
20260506111538 54 0 0.0 0.0 0.00 0.06 0.00 96 1008.1
20260506110041 53 0 0.0 0.0 0.00 0.06 0.00 96 1007.8
20260506104537 53 0 0.0 0.0 0.00 0.06 0.00 95 1007.9
20260506103038 53 0 0.0 0.0 0.00 0.06 0.00 95 1007.8
20260506101542 53 0 0.0 0.0 0.00 0.06 0.00 95 1007.7
20260506100039 52 0 0.0 0.0 0.00 0.06 0.00 95 1007.5
20260506094539 52 0 0.0 0.0 0.00 0.06 0.00 95 1007.8
20260506093039 53 0 0.0 0.0 0.00 0.06 0.00 94 1007.5
20260506091537 53 0 0.0 0.0 0.00 0.06 0.00 95 1007.7
20260506090058 53 0 0.0 0.0 0.00 0.06 0.00 94 1007.6
20260506084546 53 0 0.0 0.0 0.00 0.06 0.00 94 1007.9
20260506083042 54 0 0.0 0.0 0.00 0.06 0.00 94 1008.1
20260506081542 54 0 0.0 0.0 0.00 0.06 0.00 94 1008.2
20260506073038 55 0 0.0 0.0 0.00 0.06 0.00 94 1008.8
20260506071542 55 0 0.0 1.0 0.00 0.06 0.00 94 1008.8
20260506061537 56 0 0.0 1.0 0.00 0.06 0.00 93 1009.3
20260506044543 59 0 0.0 0.0 0.00 0.06 0.00 93 1009.5
20260506043037 59 0 0.0 0.0 0.00 0.06 0.00 93 1009.5
20260506041556 59 0 0.0 0.0 0.00 0.06 0.00 92 1009.4
20260506040041 60 0 0.0 0.0 0.01 0.06 0.00 92 1009.3
20260506034549 60 0 0.0 1.0 0.03 0.06 0.06 92 1009.3
20260506033040 61 0 1.0 3.0 0.03 0.06 0.06 92 1008.7
20260506031544 61 0 0.0 2.0 0.04 0.06 0.06 91 1008.5
20260506030043 61 0 0.0 1.0 0.04 0.05 0.05 90 1009.0
20260506024540 62 0 0.0 3.0 0.02 0.03 0.03 88 1008.3
20260506023040 62 0 0.0 2.0 0.02 0.03 0.03 85 1008.2
20260506021538 63 0 0.0 2.0 0.01 0.02 0.02 83 1008.5
20260506020042 63 61 0.0 2.0 0.00 0.01 0.01 82 1008.0
20260506014545 63 0 0.0 3.0 0.00 0.01 0.01 83 1008.3
20260506013053 62 0 0.0 1.0 0.00 0.01 0.01 84 1007.8
20260506011543 63 59 0.0 2.0 0.00 0.01 0.01 84 1007.8
20260506010040 63 0 0.0 1.0 0.00 0.01 0.01 84 1007.6
20260506004537 63 59 0.0 2.0 0.00 0.01 0.01 84 1007.5
20260506003038 63 0 0.0 1.0 0.00 0.01 0.01 81 1007.2
20260506001537 64 0 0.0 0.0 0.00 0.01 0.01 80 1007.0
20260506000044 64 59 0.0 3.0 0.00 0.01 0.01 79 1006.7
20260505234542 64 59 0.0 3.0 0.00 0.01 0.01 80 1006.8
20260505233039 64 0 0.0 2.0 0.00 0.01 0.01 80 1006.6
20260505231539 64 57 0.0 3.0 0.00 0.01 0.01 81 1006.6
20260505230100 65 0 0.0 2.0 0.00 0.01 0.01 81 1006.7
20260505224538 65 0 0.0 2.0 0.01 0.01 0.01 78 1006.7
20260505223042 66 47 0.0 4.0 0.01 0.01 0.01 76 1006.8
20260505221545 66 0 0.0 2.0 0.01 0.01 0.01 73 1007.0
20260505220051 68 281 1.0 4.0 0.01 0.01 0.01 69 1006.8
20260505214538 71 186 3.0 10.0 0.00 0.00 0.00 61 1006.4
20260505213037 77 182 1.0 11.0 0.00 0.00 0.00 49 1005.2
20260505211546 79 191 2.0 11.0 0.00 0.00 0.00 38 1004.4
20260505210038 80 177 2.0 16.0 0.00 0.00 0.00 38 1003.9
20260505204538 80 178 4.0 15.0 0.00 0.00 0.00 39 1003.7
20260505203038 80 178 5.0 11.0 0.00 0.00 0.00 39 1003.5
20260505201537 81 189 4.0 12.0 0.00 0.00 0.00 37 1003.6
20260505200045 81 191 4.0 14.0 0.00 0.00 0.00 38 1003.7
20260505194543 81 165 3.0 16.0 0.00 0.00 0.00 40 1003.7
20260505193050 82 169 5.0 22.0 0.00 0.00 0.00 39 1003.7
20260505191543 81 180 3.0 17.0 0.00 0.00 0.00 42 1003.8
20260505190038 82 107 4.0 17.0 0.00 0.00 0.00 39 1003.9
20260505184548 81 161 5.0 15.0 0.00 0.00 0.00 41 1004.0
20260505183044 81 111 4.0 14.0 0.00 0.00 0.00 42 1004.2
20260505181546 80 184 3.0 14.0 0.00 0.00 0.00 44 1004.4
20260505180040 80 80 5.0 17.0 0.00 0.00 0.00 43 1004.6
20260505174538 80 165 5.0 18.0 0.00 0.00 0.00 44 1004.9
20260505173037 79 184 1.0 12.0 0.00 0.00 0.00 43 1005.2